Terminal Aerodrome Forecast
Issued by NWS

Home | Current Version | Previous Version | Text Only | Print | Product List | Glossary Off
Versions: 1 2 3 4 5 6 7 8 9 10 11 12 13 14 15 16 17 18 19 20 21 22

000
FTUS42 KMHX 192300
TAFISO
TAF
KISO 192338Z 2000/2024 VRB03KT P6SM SCT040 BKN150
     FM200800 01003KT 4SM BR BKN007
     FM201400 02005KT P6SM SCT040
     FM201900 VRB05KT P6SM VCTS BKN040CB
      AMD LTD TO CLD VIS AND WIND=

USA.gov is the U.S. government's official web portal to all federal, state and local government web resources and services.